DW4479 Southwold UK current weather conditions

sailwx.info

Wind from 040

Air temperature 14.4° C
Dewpoint 13.7° C

Last reported at 2019-Sep-16 13:01 UTC.
Time now 2019-Sep-16 14:10 UTC

Location: N 52°20' E 001°41'.
View on Google Maps.

See reports from other nearby stations

  
Tides and Currents Weather Stations Pressure Air Temp Water Temp Dewpoint Dewpoint Depression Visibility Wind Speed Wind Dir Waves Ship Positions
date/time (UTC)wind fromknots sea level pressurealtimeterstation pressurevisibilityair tempwater tempwave heightnotes
2019-Sep-16 13:01 040 14.4
2019-Sep-16 12:45 323 14.4
2019-Sep-16 12:30 355 13.9
2019-Sep-16 12:15 348 13.9
2019-Sep-16 12:01 323 13.9
2019-Sep-16 11:45 005 14.4
2019-Sep-16 11:30 341 14.4
2019-Sep-16 11:16 360 14.4
2019-Sep-16 11:01 360 14.4
2019-Sep-16 10:45 360 0 14.4
2019-Sep-16 10:30 324 0 14.4
2019-Sep-16 10:16 332 0 14.4
2019-Sep-16 10:00 319 14.4
2019-Sep-16 09:45 336 14.4
2019-Sep-16 09:30 331 14.4
2019-Sep-16 09:15 005 14.4
2019-Sep-16 09:00 312 14.4
2019-Sep-16 08:45 312 14.4
2019-Sep-16 08:30 337 14.4
2019-Sep-16 08:15 015 14.4
2019-Sep-16 08:00 344 14.4
2019-Sep-16 07:45 360 13.9
2019-Sep-16 07:30 340 13.9
2019-Sep-16 07:15 321 13.9
2019-Sep-16 07:00 348 13.9
2019-Sep-16 06:46 348 13.9
2019-Sep-16 06:32 360 13.9
2019-Sep-16 06:17 360 13.9
2019-Sep-16 06:03 312 14.4
2019-Sep-16 05:47 351 14.4
2019-Sep-16 05:33 351 14.4
2019-Sep-16 05:16 349 14.4
2019-Sep-16 05:01 345 14.4
2019-Sep-16 04:46 335 14.4
2019-Sep-16 04:31 335 14.4
2019-Sep-16 04:17 335 14.4
2019-Sep-16 04:01 319 14.4
2019-Sep-16 03:46 319 14.4
2019-Sep-16 03:31 319 14.4
2019-Sep-16 03:16 333 14.4
2019-Sep-16 03:01 316 14.4
2019-Sep-16 02:46 313 14.4
2019-Sep-16 02:31 316 14.4
2019-Sep-16 02:16 309 14.4
2019-Sep-16 02:01 327 14.4
2019-Sep-16 01:45 322 14.4
2019-Sep-16 01:31 323 14.4
2019-Sep-16 01:16 314 14.4
2019-Sep-16 01:01 355 15.0
2019-Sep-16 00:46 343 15.0
2019-Sep-16 00:31 350 0 15.0
2019-Sep-16 00:16 360 15.6
2019-Sep-16 00:00 329 15.6
2019-Sep-15 23:46 360 15.6
2019-Sep-15 23:30 348 16.1
2019-Sep-15 23:15 355 16.1
2019-Sep-15 23:00 330 16.1
2019-Sep-15 22:46 338 16.1
2019-Sep-15 22:30 342 16.1
2019-Sep-15 22:16 331 16.1
2019-Sep-15 22:00 333 16.7
2019-Sep-15 21:45 306 16.7
2019-Sep-15 21:31 306 16.7
2019-Sep-15 21:15 360 16.7
2019-Sep-15 21:00 360 16.7
2019-Sep-15 20:45 355 16.7
2019-Sep-15 20:30 338 16.7
2019-Sep-15 20:15 351 16.7
2019-Sep-15 20:00 350 16.7
2019-Sep-15 19:45 360 17.2
2019-Sep-15 19:30 347 17.2
2019-Sep-15 19:15 306 17.2
2019-Sep-15 19:00 078 17.2
2019-Sep-15 18:45 236 17.8
2019-Sep-15 18:30 272 17.8
2019-Sep-15 18:15 021 17.8
2019-Sep-15 18:00 021 17.8
2019-Sep-15 17:45 062 18.3
2019-Sep-15 17:30 256 18.9
2019-Sep-15 17:15 093 18.9
2019-Sep-15 17:00 049 18.9
2019-Sep-15 16:45 011 18.3
2019-Sep-15 16:30 286 18.3
2019-Sep-15 16:15 295 18.9
2019-Sep-15 16:00 338 18.9
2019-Sep-15 15:45 305 19.4
2019-Sep-15 15:30 005 20.0
2019-Sep-15 15:15 309 20.6
2019-Sep-15 15:00 277 20.6
2019-Sep-15 14:45 026 20.6
2019-Sep-15 14:30 355 20.0
2019-Sep-15 14:15 323 0 20.6
2019-Sep-15 14:00 044 0 21.1
2019-Sep-15 13:45 321 22.2
2019-Sep-15 13:32 297 22.8
2019-Sep-15 13:16 100 24.4
2019-Sep-15 13:01 144 24.4
2019-Sep-15 12:46 348 23.9
2019-Sep-15 12:31 307 23.3
2019-Sep-15 12:16 328 23.3
2019-Sep-15 12:02 330 22.8
2019-Sep-15 11:46 154 22.8
2019-Sep-15 11:31 073 22.2
2019-Sep-15 11:16 015 22.8
2019-Sep-15 11:01 124 22.2
2019-Sep-15 10:46 313 21.1
2019-Sep-15 10:31 265 21.1
2019-Sep-15 10:16 022 20.6
2019-Sep-15 10:01 115 20.0
2019-Sep-15 09:46 072 0 19.4
2019-Sep-15 09:30 135 0 18.9
2019-Sep-15 09:16 192 0 17.8
2019-Sep-15 09:00 355 17.2
2019-Sep-15 08:45 141 0 16.7
2019-Sep-15 08:30 035 16.1
2019-Sep-15 08:16 123 0 15.0
2019-Sep-15 08:01 129 0 14.4
2019-Sep-15 07:46 339 1 13.9
2019-Sep-15 07:31 179 2 12.8
2019-Sep-15 07:17 086 2 12.2
2019-Sep-15 07:01 134 1 11.7
2019-Sep-15 06:46 074 0 11.1
2019-Sep-15 06:31 150 1 11.1
2019-Sep-15 06:16 165 0 11.1
2019-Sep-15 06:01 127 10.6
2019-Sep-15 05:46 182 10.6
2019-Sep-15 05:31 159 10.6
2019-Sep-15 05:16 176 10.6
2019-Sep-15 05:01 155 10.6
2019-Sep-15 04:46 155 11.1
2019-Sep-15 04:31 140 11.1
2019-Sep-15 04:16 140 11.1
2019-Sep-15 04:00 154 11.1
2019-Sep-15 03:46 155 11.1
2019-Sep-15 03:31 153 11.1
2019-Sep-15 03:16 109 11.1
2019-Sep-15 03:00 186 11.7
2019-Sep-15 02:45 164 11.7
2019-Sep-15 02:30 164 12.2
2019-Sep-15 02:15 164 12.2
2019-Sep-15 02:00 164 12.2
2019-Sep-15 01:46 163 12.8
2019-Sep-15 01:30 180 12.8
2019-Sep-15 01:15 165 12.8
2019-Sep-15 01:00 180 13.3
2019-Sep-15 00:45 153 13.3
2019-Sep-15 00:30 188 13.3
2019-Sep-15 00:15 238 0 13.9
2019-Sep-15 00:00 147 1 13.9
2019-Sep-14 23:45 163 13.3
2019-Sep-14 23:32 188 13.3
2019-Sep-14 23:17 182 13.3
2019-Sep-14 23:02 219 13.3
2019-Sep-14 22:47 219 13.3
2019-Sep-14 22:31 219 13.3
2019-Sep-14 22:16 155 13.9
2019-Sep-14 22:01 167 13.3
2019-Sep-14 21:47 188 13.9
2019-Sep-14 21:31 188 13.9
2019-Sep-14 21:16 176 13.9
2019-Sep-14 21:01 131 13.9
2019-Sep-14 20:46 196 13.9
2019-Sep-14 20:31 196 14.4
2019-Sep-14 20:16 196 14.4
2019-Sep-14 20:03 148 15.0
2019-Sep-14 19:46 156 15.0
2019-Sep-14 19:31 185 15.6
2019-Sep-14 19:16 172 15.6
2019-Sep-14 19:01 182 16.1
2019-Sep-14 18:46 174 16.1
2019-Sep-14 18:31 158 16.1
2019-Sep-14 18:16 180 16.7
2019-Sep-14 18:01 190 0 17.2
2019-Sep-14 17:46 171 3 17.2
2019-Sep-14 17:31 170 3 17.2
2019-Sep-14 17:16 179 2 17.2
2019-Sep-14 17:00 183 3 17.8
2019-Sep-14 16:45 159 0 18.3
2019-Sep-14 16:31 182 2 18.3
2019-Sep-14 16:16 209 2 18.3
2019-Sep-14 16:00 172 1 18.3
2019-Sep-14 15:46 228 1 18.9
2019-Sep-14 15:30 184 2 18.9
2019-Sep-14 15:15 172 1 19.4
2019-Sep-14 15:00 151 1 20.0
2019-Sep-14 14:45 132 0 20.6
2019-Sep-14 14:30 170 0 20.6
2019-Sep-14 14:15 175 0 20.6
2019-Sep-14 14:01 234 0 21.1